{"data":{"norad_id":57240,"intl_designator":"2023-094Y","name":"STARLINK-6351","alt_names":[],"object_type":"PAYLOAD","status":"ACTIVE","operator":null,"country":"US","launch_date":"2023-07-07","launch_site_code":"AFWTR","launch_vehicle":null,"mission":null,"orbit_class":"UNKNOWN","rcs_meters":null,"size_class":null,"mass_kg":null,"dimensions":null,"purposes":["comms"],"wikipedia_slug":null,"has_3d_model":false,"image_url":null,"decayed_at":null,"tle_current":{"epoch":"2026-05-24T22:09:33.217632Z","epoch_age_seconds":92392,"freshness":"FRESH","line1":"1 57240U 23094Y   26144.92330113  .00000161  00000+0  15374-4 0  9996","line2":"2 57240  43.0035 308.9614 0001888 268.9200  91.1435 15.27578068158903","mean_motion":15.27578068,"eccentricity":0.0001888,"inclination_deg":43.0035,"raan_deg":308.9614,"arg_perigee_deg":268.92,"mean_anomaly_deg":91.1435,"bstar":1.5374e-5,"rev_number":15890,"period_min":94.266867937253,"perigee_km":481.75948812162,"apogee_km":484.35027417595,"semimajor_km":6861.1918811488,"source":"CELESTRAK","updated_at":"2026-05-25T13:38:18.256589Z"}}}